Temp
18 18 18 18 18 18 18 18 18 18 18 18 18 18 17 17 17 17 16 16 16 16 16 15 15 15 15 15 15 15 15 16 16 16 16 15 15 15 15 15 15 15
18 18 18 18 18 18 18 18 18 18 18 18 18 18 18 18 17 17 17 16 16 16 16 15 15 15 15 15 15 15 15 15 15 16 16 16 15 15 15 15 15 15
18 18 17 17 17 17 17 17 18 18 18 18 18 18 18 18 17 17 17 16 16 16 16 15 15 15 15 14 14 14 14 15 15 15 15 15 15 15 15 15 15 15
18 17 17 17 17 17 17 17 17 17 17 17 17 17 17 17 17 17 16 16 16 16 15 15 15 15 15 15 14 14 14 14 14 14 14 15 15 15 15 15 15 14
17 17 17 17 17 17 17 17 17 17 17 17 17 17 17 17 17 16 16 16 16 16 15 15 15 15 15 15 15 14 14 14 14 14 14 14 14 14 14 14 14 14
17 17 17 17 17 17 16 17 17 17 17 17 17 17 17 16 16 16 16 16 16 15 15 15 15 15 15 15 15 14 14 14 14 14 14 14 14 14 14 13 13 14
17 17 17 17 16 16 16 16 16 16 16 16 16 16 16 16 16 16 16 16 15 15 15 15 15 15 15 15 15 14 14 14 14 14 14 14 14 14 13 13 13 13
16 16 16 16 16 16 16 16 16 16 16 16 16 16 16 16 16 16 16 15 15 15 15 15 15 15 15 15 15 14 14 14 14 14 14 14 14 13 13 13 13 13
16 16 16 16 16 16 16 16 16 16 16 16 16 16 16 16 16 16 16 15 15 15 15 15 15 15 15 15 15 15 14 14 14 14 14 14 14 13 13 13 13 13
15 16 16 16 16 16 16 16 16 16 16 16 16 15 15 15 15 15 15 15 15 15 15 15 15 14 14 15 15 15 14 14 14 14 13 13 14 13 13 13 13 12
15 15 15 15 15 15 15 16 16 16 16 16 15 15 15 15 15 15 15 15 15 15 15 14 14 14 14 14 14 14 14 14 14 14 13 13 13 13 13 13 12 12
14 14 15 15 15 15 15 15 15 15 15 15 15 15 15 15 15 15 15 15 14 14 14 14 14 14 14 14 14 14 14 14 14 13 13 13 13 13 13 13 12 12
16 15 16 16 16 17 17 16 15 15 15 15 15 15 15 15 15 15 15 14 14 14 14 14 14 14 14 14 14 14 14 14 14 13 13 13 13 13 12 12 12 12
17 17 17 17 17 17 17 17 16 15 14 14 14 14 15 15 15 14 14 14 13 13 13 13 13 13 13 14 14 13 13 13 13 13 13 13 13 12 12 12 12 12
16 16 16 17 17 17 17 17 16 15 15 14 14 14 15 15 14 13 13 12 12 12 12 12 12 13 13 13 13 13 13 13 13 13 12 12 12 12 12 12 12 12
15 15 15 15 15 15 15 15 15 14 14 14 14 14 14 14 14 12 11 11 11 11 11 12 12 12 12 12 12 12 12 12 12 12 12 12 12 12 12 12 12 12
14 14 14 14 15 15 15 14 14 14 14 13 13 13 14 14 13 12 11 10 10 10 11 11 11 11 11 12 12 12 12 12 12 12 12 12 12 12 12 12 12 12
13 13 13 13 13 14 13 13 13 13 14 14 14 14 13 13 12 11 11 10 9 9 10 10 10 11 11 11 11 12 12 12 12 12 12 12 12 12 12 12 12 12
12 12 12 12 13 12 12 12 12 12 13 13 13 13 12 12 11 11 11 10 8 8 8 9 9 10 10 11 11 11 12 12 12 12 12 12 12 12 12 12 12 12
12 12 12 12 13 12 12 11 11 12 12 12 11 11 10 10 11 11 11 10 8 7 7 8 8 9 9 10 10 11 11 11 12 12 12 12 12 12 12 12 12 12
12 12 12 12 13 12 12 11 11 11 11 11 11 10 9 9 9 9 9 9 8 7 6 7 8 8 8 9 9 10 10 11 11 11 11 11 11 11 11 12 12 12
12 11 11 12 12 11 11 12 12 11 11 11 10 9 9 8 8 8 8 8 7 6 5 6 9 9 7 7 8 9 9 10 10 11 11 11 11 11 11 11 11 11
11 11 11 11 10 10 11 11 11 11 11 11 10 9 9 8 8 8 8 7 6 5 5 6 9 9 8 7 7 8 8 9 9 10 10 10 10 10 10 11 11 11
10 10 10 10 10 9 10 10 10 10 10 10 9 9 9 8 8 7 7 6 5 5 5 5 7 9 9 7 7 7 7 8 8 9 9 9 9 10 10 10 10 10
10 9 9 9 9 9 9 9 9 9 9 9 8 8 8 8 8 7 6 6 5 5 5 4 5 7 7 7 6 6 6 7 7 8 8 8 8 9 9 9 9 10
9 9 9 9 8 8 8 8 8 8 8 7 7 7 7 7 7 6 6 6 5 5 5 5 4 5 5 5 5 5 6 6 7 7 7 8 8 8 8 8 8 9
Height
749 750 751 753 753 754 755 756 757 758 759 760 760 761 762 763 765 766 767 768 770 771 772 774 775 777 779 780 781 781 782 782 782 782 783 783 783 784 784 784 784 785
746 747 748 749 749 750 751 752 754 755 756 756 757 758 759 760 761 763 764 765 766 767 769 770 771 773 774 775 776 777 777 778 778 778 778 778 779 779 780 780 781 781
742 743 744 744 745 746 748 750 751 751 752 754 754 755 756 757 758 759 760 762 763 764 765 766 767 768 770 771 772 773 773 774 774 774 774 774 775 775 776 776 777 777
739 740 740 741 742 744 746 747 748 748 749 750 751 752 753 754 755 755 756 758 759 760 761 762 763 765 766 767 768 769 769 770 770 771 771 770 771 771 772 772 772 773
736 737 738 739 741 742 743 744 745 745 746 747 748 749 750 751 752 752 753 754 755 756 757 758 759 761 762 763 764 764 765 766 766 767 767 766 766 766 767 768 768 768
734 735 736 738 739 740 741 741 742 743 744 745 746 747 748 749 749 750 750 750 751 752 753 754 755 756 757 758 759 760 761 762 762 763 762 762 762 762 762 763 763 763
732 733 734 736 737 738 738 738 739 740 742 743 744 745 746 747 747 747 747 748 748 749 749 750 751 752 752 753 754 755 756 757 757 758 757 757 757 757 758 758 758 759
730 731 732 733 734 735 735 736 737 738 740 741 741 742 743 744 744 744 745 745 746 746 746 746 747 747 748 749 749 750 751 751 752 752 753 753 753 753 753 754 754 755
727 728 729 730 731 732 732 733 735 736 737 737 738 739 740 741 742 742 743 742 743 743 743 743 743 744 744 745 745 745 746 746 747 747 748 748 748 747 748 750 750 750
725 726 727 727 728 729 730 731 732 732 733 734 734 735 736 737 738 738 739 739 739 739 740 740 740 741 741 741 741 741 741 741 742 742 742 742 742 743 744 745 745 745
724 724 725 725 726 727 727 728 729 730 730 731 731 732 732 733 733 734 734 735 734 735 735 736 736 736 737 737 737 737 737 737 737 737 737 737 738 739 739 740 740 741
722 723 723 724 724 725 726 726 727 727 728 728 728 729 728 729 729 729 730 730 730 730 731 730 730 731 731 731 732 733 732 733 733 733 733 733 734 734 735 735 736 736
720 720 721 721 722 722 723 723 724 725 725 725 726 725 725 725 725 725 726 726 726 726 726 726 726 727 727 727 727 728 728 728 729 729 729 729 729 730 730 731 731 732
718 718 718 718 719 719 719 720 720 721 721 722 722 722 721 721 720 721 721 721 721 721 721 722 723 722 722 722 722 723 723 724 724 725 725 725 725 725 726 726 726 727
717 717 716 716 716 716 716 716 716 717 717 717 717 717 717 716 716 716 716 716 716 716 716 717 717 717 717 717 718 719 719 719 720 720 720 720 720 720 721 721 721 721
716 716 715 715 715 715 714 714 714 714 713 713 713 713 712 712 712 712 712 712 711 711 712 712 711 711 711 712 713 714 715 716 716 716 716 716 716 715 715 715 716 716
715 715 715 714 714 714 713 712 712 711 710 710 709 708 708 708 707 707 707 707 707 707 707 707 706 706 707 708 709 710 711 712 712 712 711 711 711 710 710 710 711 711
714 714 713 713 713 713 712 711 710 708 707 706 705 704 704 703 703 702 702 702 703 702 702 701 700 701 703 704 705 706 707 708 708 708 707 707 706 706 705 706 706 707
713 713 712 712 711 711 711 709 708 706 705 704 703 702 701 699 698 698 697 697 697 697 697 696 696 697 699 700 700 702 704 704 704 703 703 703 702 702 701 702 702 703
712 711 711 710 709 709 708 707 706 705 703 702 701 699 698 696 695 694 693 692 692 691 691 691 691 693 694 695 697 698 700 701 700 700 699 699 698 698 698 698 698 699
710 709 709 708 707 707 706 704 704 702 701 700 699 697 696 694 693 692 690 689 688 688 687 685 685 687 689 691 692 694 695 697 696 696 695 694 694 694 694 694 694 695
709 708 707 706 705 704 703 701 700 699 698 697 696 694 693 692 691 690 688 687 685 685 683 680 679 681 684 685 686 688 690 691 691 691 690 689 689 689 689 689 690 690
708 707 705 704 704 703 701 699 698 696 695 694 692 691 690 689 688 687 686 685 683 682 681 677 674 676 678 678 680 683 684 685 686 686 685 684 684 684 685 685 685 686
707 706 705 703 702 701 700 698 696 695 693 691 689 687 685 685 684 683 682 682 681 680 679 676 672 671 673 673 674 677 679 679 680 681 680 679 679 679 680 680 680 681
705 704 703 702 700 699 698 697 695 693 691 690 688 685 682 681 680 679 678 677 677 677 676 675 671 669 670 670 670 672 674 674 675 676 675 674 675 675 675 676 676 677
703 702 701 699 698 696 695 693 692 690 689 688 686 683 681 678 677 676 673 672 672 672 671 671 669 667 668 668 668 669 670 670 671 670 669 669 670 671 671 672 672 673
Wind_Speed
25 24 24 24 24 26 25 24 23 22 22 22 23 23 23 25 27 27 28 30 31 32 30 27 26 25 26 27 28 28 28 28 29 29 29 30 31 31 30 29 29 29
24 24 24 24 24 26 25 23 22 22 22 22 22 22 21 22 25 26 27 29 30 31 30 28 27 26 25 25 27 28 29 28 29 29 30 30 30 31 31 30 30 29
23 24 26 27 26 24 22 21 21 22 22 22 21 21 21 22 23 24 26 28 29 31 31 30 29 27 25 25 26 28 29 29 30 29 29 30 30 30 30 30 30 30
23 23 24 26 25 22 21 20 21 21 21 22 22 22 22 23 22 23 26 27 28 29 30 30 29 28 27 26 27 28 29 30 30 29 28 29 30 31 30 29 30 31
21 22 22 21 21 20 20 20 21 20 20 21 22 21 21 23 23 24 26 27 28 28 27 27 28 28 28 27 28 29 29 29 29 29 29 29 30 32 32 31 30 30
18 18 18 18 18 18 19 20 21 20 20 20 19 19 20 21 22 24 25 25 27 28 27 27 27 28 29 29 29 30 30 30 29 29 30 30 30 31 32 32 31 30
14 14 15 16 16 17 18 19 20 19 19 18 18 19 20 20 21 22 23 24 25 27 29 29 29 29 29 29 29 30 31 31 30 30 31 31 30 31 31 31 32 31
12 12 13 14 15 17 18 18 18 17 17 17 18 19 19 19 21 22 22 23 24 26 28 29 29 30 30 29 29 30 31 32 32 31 31 31 31 31 32 31 31 32
12 13 13 14 15 16 17 17 17 16 16 17 18 19 18 19 20 21 22 22 22 24 26 27 28 29 30 30 30 31 32 33 33 32 32 32 32 32 32 31 30 31
13 13 13 14 15 16 17 17 17 17 17 18 19 18 19 19 20 22 22 22 23 25 25 26 26 28 28 29 30 31 33 34 34 34 34 33 33 33 32 32 32 32
12 12 13 14 15 15 16 16 17 17 18 18 19 20 20 20 21 23 24 24 25 26 26 27 28 28 29 29 31 32 33 35 35 34 35 34 34 33 33 33 34 34
13 13 13 14 15 16 16 17 17 18 19 19 20 20 21 21 22 23 24 25 26 26 27 28 29 29 29 30 31 32 33 34 35 35 34 34 33 33 33 34 34 34
13 14 15 16 16 17 17 18 19 19 19 19 20 20 22 23 23 23 24 25 26 27 27 28 28 28 29 30 31 32 32 33 34 34 34 33 33 33 33 34 35 35
12 14 15 16 16 17 18 19 20 20 19 19 19 20 22 24 24 25 25 26 28 29 29 29 29 29 29 30 32 32 32 33 33 34 34 34 34 34 34 34 35 36
12 13 14 15 16 17 18 19 21 20 20 20 20 21 23 24 25 25 25 27 29 31 32 32 32 33 33 33 33 33 33 33 34 34 34 35 35 35 35 36 36 36
14 14 14 15 16 17 18 19 19 19 20 20 21 22 24 25 25 25 25 28 30 31 32 33 35 36 37 36 36 36 35 35 35 35 36 36 37 36 36 37 37 37
17 16 15 15 16 17 17 18 18 19 20 21 22 23 24 25 25 26 27 29 30 31 32 33 35 37 37 37 38 38 38 37 36 35 36 37 37 36 36 36 37 37
18 17 17 18 18 18 19 19 19 19 20 21 22 23 23 24 26 27 28 29 29 31 33 34 36 36 35 36 37 38 38 39 38 37 35 36 36 36 37 36 36 37
16 17 17 18 19 20 20 21 21 22 22 22 23 24 23 24 25 26 28 28 28 30 33 34 35 35 34 35 36 36 36 38 39 39 37 36 35 35 36 36 36 36
15 16 17 18 19 19 20 22 23 24 24 24 25 25 25 26 26 26 27 28 28 30 32 33 35 34 34 34 34 34 34 36 38 39 39 38 36 35 35 36 36 36
15 16 17 18 19 20 21 22 23 24 25 25 25 26 26 27 27 27 28 28 28 28 30 33 36 34 33 33 33 33 32 33 36 38 38 38 38 37 36 36 36 37
15 17 18 20 20 21 22 23 23 24 25 25 25 27 27 27 28 28 28 28 28 27 29 34 36 34 32 32 32 32 32 32 35 36 37 38 38 38 38 38 38 37
16 17 19 21 22 23 24 25 25 25 24 23 24 26 27 27 29 29 29 29 29 28 29 33 35 33 31 31 31 30 30 32 33 35 36 38 38 38 39 39 39 38
19 18 20 21 23 23 25 26 27 27 26 24 23 25 26 27 27 29 30 29 29 30 31 33 36 34 30 30 30 28 29 31 32 33 34 36 37 38 39 39 39 38
22 21 21 21 23 24 25 26 27 28 27 26 25 25 26 27 26 27 29 30 29 31 32 33 36 36 32 31 30 28 28 29 30 31 33 34 35 36 36 37 37 36
25 25 25 25 25 27 28 28 28 28 28 27 26 26 26 27 26 25 28 30 30 30 32 33 35 37 34 31 30 29 28 27 28 31 32 32 32 32 32 32 33 34
Wind_Direction
225 224 225 224 226 230 229 225 223 223 223 220 220 220 218 223 228 223 220 224 225 224 222 219 218 221 223 226 227 228 229 229 230 230 230 230 230 231 231 230 228 227
225 226 227 226 227 231 230 227 225 225 226 226 225 224 224 228 229 224 222 224 226 226 222 217 218 220 221 224 226 227 229 230 231 232 231 230 230 231 232 231 230 230
225 226 227 228 229 229 228 228 229 228 229 231 230 227 228 230 227 224 225 226 227 228 225 221 221 221 222 224 226 227 229 230 231 233 233 231 229 231 233 232 231 231
225 225 226 229 230 229 229 229 229 229 229 231 232 231 232 231 227 225 228 229 228 226 226 226 223 223 225 226 227 228 229 231 232 233 233 232 230 230 232 233 232 232
227 227 228 229 230 230 230 230 230 230 229 231 233 232 232 230 226 227 231 232 230 226 224 224 224 226 228 227 227 228 229 230 231 231 233 233 230 229 231 232 232 231
231 230 230 229 230 230 230 231 232 232 231 233 233 233 233 231 228 229 230 230 232 230 225 223 226 229 229 227 227 227 228 230 230 230 232 232 230 229 229 229 230 230
233 231 230 229 230 231 231 233 235 235 235 235 237 238 238 235 232 232 231 229 231 233 232 230 230 230 229 227 226 225 226 228 229 229 231 231 230 229 228 228 228 229
232 230 229 229 229 231 233 235 236 236 238 239 240 242 243 239 238 240 237 232 233 236 236 235 232 230 230 228 226 225 225 226 227 229 230 231 230 228 228 228 228 228
231 231 229 228 229 231 234 236 237 238 240 241 241 243 246 244 244 245 241 237 239 240 238 237 236 234 233 231 229 227 227 227 228 229 231 231 231 229 228 228 228 228
239 236 233 233 232 235 238 241 242 241 243 243 242 244 246 245 245 245 244 242 243 241 239 239 239 237 236 234 232 230 229 230 230 231 232 232 232 231 229 228 229 230
252 244 240 239 238 242 246 247 247 247 247 246 246 249 250 247 245 244 244 244 243 240 239 240 238 237 237 236 234 233 233 232 232 232 232 233 233 233 231 230 230 232
261 253 250 249 249 251 254 254 253 253 252 250 251 254 253 251 248 246 244 244 243 240 238 239 239 237 236 235 235 236 235 234 233 233 234 234 234 234 233 232 232 233
267 265 264 263 262 262 263 262 258 255 253 254 255 255 255 255 252 250 247 245 244 242 240 239 239 238 237 236 236 235 235 236 235 235 235 235 235 235 235 235 235 235
274 271 269 269 267 266 267 266 263 259 258 259 258 256 257 259 258 255 251 247 246 245 244 242 241 241 240 238 237 236 235 236 237 237 237 237 238 238 239 239 239 239
289 283 277 275 273 269 268 267 266 266 265 265 263 262 263 264 262 258 253 249 248 247 247 245 243 242 242 239 238 238 238 238 239 239 239 240 241 242 243 243 242 241
306 301 294 289 285 281 278 276 274 274 273 272 271 271 273 272 268 262 256 253 252 251 250 248 246 245 244 243 242 242 241 241 242 242 242 242 243 243 244 243 242 242
318 315 309 304 300 295 291 288 285 284 282 282 281 280 279 278 273 267 262 258 255 253 252 251 250 249 248 247 246 245 244 244 244 244 244 243 243 242 243 243 242 242
326 323 319 315 311 306 302 298 294 291 289 288 287 286 285 281 275 271 267 263 258 255 254 253 252 253 251 250 249 248 247 246 246 246 245 245 243 242 243 243 242 243
333 329 323 319 315 311 306 302 299 297 296 295 293 292 289 283 279 276 272 266 260 257 256 256 256 255 254 254 253 251 250 249 248 248 247 247 246 244 244 243 242 242
339 333 326 322 319 315 310 305 303 301 301 301 299 296 292 287 284 280 276 270 263 259 258 258 258 257 256 255 255 254 253 252 251 251 250 250 250 248 247 245 244 243
338 332 326 324 322 318 313 308 306 305 305 305 302 297 293 290 287 283 280 275 268 261 259 259 259 258 256 255 255 254 254 254 253 253 252 253 252 251 250 249 248 247
332 328 323 322 319 315 312 309 308 306 305 305 301 297 294 292 289 287 284 280 274 266 260 261 263 261 257 255 253 252 253 253 253 253 253 253 254 253 252 252 251 249
329 325 321 319 316 313 311 310 309 305 303 302 298 295 294 292 290 290 288 283 277 270 262 262 265 264 259 256 253 250 250 250 250 251 252 253 254 254 253 253 252 251
328 324 320 317 315 312 310 309 307 303 301 299 294 291 291 290 290 290 288 283 278 273 267 265 267 267 262 258 253 248 246 246 247 250 251 252 254 254 254 253 252 251
327 324 321 318 314 312 310 307 305 303 301 297 292 288 288 288 288 286 285 282 278 275 272 269 269 270 266 260 256 250 245 244 245 246 248 251 253 254 254 253 250 249
327 324 322 320 317 316 314 311 308 306 303 299 293 288 286 284 283 281 281 281 278 276 274 270 269 270 269 265 261 256 249 245 243 240 241 245 249 250 252 252 251 250